Theta_e
291 291 291 291 291 291 290 291 291 291 291 291 290 290 290 290 290 290 289 289 288 288 289 288 287 287 286 285 285 284 283 282 278 280 282 283 281 281 282 282 283 282 281
292 291 291 291 291 290 290 290 291 291 291 291 290 290 290 289 290 289 288 288 288 287 287 287 286 286 285 284 284 283 282 282 280 277 279 279 280 281 281 280 281 281 280
291 291 290 290 290 290 290 290 290 290 290 290 290 289 289 289 289 289 288 288 288 287 287 286 285 285 283 283 283 282 281 281 280 278 277 279 279 280 279 279 279 279 280
292 290 290 290 290 290 290 290 290 290 289 289 289 288 288 288 288 288 287 287 287 287 286 286 284 283 282 282 281 281 280 279 279 277 277 276 277 278 278 275 275 277 276
292 291 290 290 290 290 289 289 289 289 289 289 288 288 288 287 287 287 286 286 285 285 285 284 283 283 282 281 279 278 278 277 276 275 274 274 275 274 274 275 273 274 274
291 290 291 290 289 289 288 288 288 288 288 288 287 287 287 285 288 288 287 285 284 283 282 282 282 282 281 281 280 280 279 276 275 274 274 272 273 274 274 273 272 270 268
290 290 290 289 289 288 288 288 287 287 287 286 286 286 285 285 287 286 286 284 283 282 281 280 279 279 279 278 278 279 278 278 278 276 274 273 273 274 273 271 270 269 268
290 289 289 288 287 288 287 286 286 286 285 285 285 285 285 284 286 285 284 282 281 280 280 279 278 277 277 277 276 275 275 276 276 276 274 274 274 274 273 271 270 268 268
287 287 287 287 286 286 285 285 285 285 284 284 284 284 283 281 284 284 282 279 279 278 278 277 277 276 276 277 275 274 273 274 276 276 276 276 276 275 273 270 266 265 263
286 286 286 286 285 285 285 284 284 284 284 284 282 282 279 278 281 281 280 278 277 276 277 277 277 275 276 276 274 273 270 270 270 271 270 269 270 269 271 269 267 263 263
285 285 285 285 285 285 285 284 283 283 281 279 277 276 276 276 277 279 279 277 276 276 275 275 275 275 275 275 275 272 270 271 270 267 266 266 266 266 267 267 267 265 263
284 283 284 284 284 284 284 282 281 279 277 274 272 271 272 273 276 277 277 276 276 273 273 273 273 274 274 274 273 272 272 271 265 264 263 263 264 264 265 265 265 264 265
282 282 283 282 283 283 282 279 278 277 275 272 272 270 270 271 273 275 275 274 274 272 273 273 271 271 272 270 269 270 267 265 263 262 262 262 263 264 264 263 264 265 264
281 281 280 280 280 280 280 279 277 276 274 273 271 270 269 269 270 271 271 272 273 272 272 269 268 269 268 267 265 266 265 264 263 261 261 263 263 263 262 263 262 263 262
280 279 278 278 278 277 277 277 276 276 276 273 272 271 269 268 269 271 271 271 272 272 267 267 265 264 263 263 263 262 263 263 262 262 262 262 261 261 261 262 262 261 260
278 277 277 276 275 274 274 273 277 277 278 277 275 272 271 272 273 273 273 272 271 269 265 263 262 262 261 261 261 261 262 261 262 262 261 260 260 260 260 261 261 260 260
278 277 276 275 273 272 272 272 271 274 276 275 274 273 273 273 273 272 271 270 267 265 262 262 261 261 261 261 261 261 260 261 261 260 260 260 260 260 259 259 260 260 260
279 277 275 274 273 272 272 271 271 269 267 268 272 271 272 272 271 270 269 266 261 261 260 260 259 260 260 259 260 260 260 260 259 259 259 259 259 258 258 259 259 259 259
278 275 274 274 273 272 271 270 268 266 265 264 266 266 268 269 269 267 264 261 260 260 260 259 259 259 259 259 259 258 258 258 258 258 258 258 259 259 258 259 259 259 259
275 274 273 272 269 268 267 266 264 262 261 261 262 260 259 262 261 259 259 259 258 258 259 258 258 258 257 257 257 258 257 258 258 258 258 259 259 259 258 259 259 259 259
273 272 270 268 267 266 265 264 263 262 261 261 261 261 262 261 260 259 258 258 258 258 257 258 257 257 257 257 257 257 257 257 258 257 258 258 258 258 259 259 259 259 260
270 268 269 267 265 264 263 263 262 261 261 259 258 263 265 259 258 258 257 257 257 256 256 256 256 256 256 256 256 255 255 256 256 257 257 257 258 258 258 258 259 259 259
269 268 265 264 263 262 261 261 261 260 259 258 257 256 257 257 256 256 256 256 255 255 255 255 255 254 255 255 256 256 256 256 256 257 256 256 256 257 258 257 258 258 259
266 265 263 261 261 261 260 260 259 259 258 257 257 257 256 256 256 255 253 254 254 254 254 254 254 253 254 254 255 255 256 256 257 257 256 256 256 256 257 257 258 259 260
264 263 262 260 260 259 258 258 257 257 257 257 257 256 256 255 254 253 254 252 250 251 252 252 253 252 253 253 253 254 254 256 255 256 255 256 255 256 257 258 261 263 264
263 262 261 260 259 259 258 257 257 257 256 256 256 256 254 253 253 252 251 250 249 250 250 252 252 252 253 253 254 255 258 260 259 259 261 262 262 263 264 264 264 265 266
Wind_Speed
23 21 21 20 20 18 17 17 17 16 15 15 15 14 14 13 12 11 11 10 11 10 9 9 9 8 6 6 6 7 8 9 13 10 9 10 12 14 13 13 13 14 13
22 22 23 21 20 20 20 20 18 18 17 16 15 14 14 13 13 13 12 11 11 11 10 9 10 7 8 8 7 9 8 9 11 19 11 10 12 13 14 16 12 12 13
20 22 22 22 22 24 22 21 20 19 18 17 16 15 15 14 14 13 12 11 11 11 10 9 9 8 8 7 8 8 8 8 10 12 14 11 10 11 13 13 15 13 11
20 22 22 22 25 23 21 21 20 20 18 17 17 15 14 14 13 12 11 11 10 9 8 7 7 8 8 8 8 9 8 9 9 11 13 13 12 12 11 13 13 12 13
20 20 23 23 22 21 21 21 20 19 18 17 16 15 14 12 10 12 11 10 10 9 7 7 7 7 5 7 7 8 9 9 9 11 12 13 12 13 13 13 14 13 15
18 21 21 21 20 20 21 21 19 19 18 17 17 16 15 10 15 17 13 10 8 7 7 6 5 5 7 13 13 15 14 11 12 11 12 14 16 14 13 11 14 15 15
15 18 19 19 20 21 20 20 21 21 18 18 17 15 14 11 19 19 16 8 8 7 6 5 5 4 5 8 11 15 15 19 22 16 16 14 16 12 15 16 15 16 17
13 17 18 18 19 18 18 20 20 18 19 17 15 14 12 10 20 20 18 8 6 6 5 6 6 6 6 7 10 11 11 12 12 9 8 12 14 16 14 16 19 20 16
14 14 15 15 16 16 17 18 16 15 14 14 14 14 13 10 20 20 15 8 6 6 5 5 5 5 8 11 10 10 12 10 9 19 23 28 27 29 26 14 13 13 15
14 13 12 12 14 15 15 14 12 11 11 11 12 12 14 13 19 18 13 6 6 5 5 5 7 7 10 12 10 8 8 8 11 13 10 13 18 16 23 13 11 12 13
8 8 8 10 12 13 11 11 12 11 11 12 13 11 12 11 13 17 15 7 5 5 4 4 4 7 10 13 14 8 11 14 12 8 9 9 9 10 9 9 10 10 13
7 8 9 9 9 8 11 9 12 13 13 13 13 11 8 8 12 15 13 8 7 5 4 3 3 9 9 13 12 16 17 15 6 7 8 9 9 9 9 10 14 13 13
6 9 8 7 9 8 11 12 11 12 12 12 11 10 9 7 7 15 13 10 8 4 3 5 1 6 10 10 13 14 9 4 5 7 8 9 9 9 12 13 14 15 16
9 7 4 6 5 8 8 10 11 11 11 12 11 11 10 8 7 6 5 5 5 4 4 3 2 6 8 7 4 6 3 4 6 7 8 9 9 9 10 10 12 12 13
8 7 8 8 11 8 7 8 9 8 12 13 11 11 12 9 8 11 9 6 5 6 5 2 0 2 3 4 3 2 4 5 6 7 8 9 10 10 11 10 11 11 12
9 8 8 8 8 9 9 7 16 16 17 20 20 14 8 15 19 14 11 7 7 4 2 1 2 3 4 4 4 5 5 6 6 7 8 9 10 10 11 11 10 11 12
11 9 8 9 9 10 10 11 13 17 24 23 22 21 19 17 16 13 10 10 6 6 2 2 3 3 3 4 5 5 6 6 7 7 8 10 10 11 12 11 11 12 13
11 13 10 10 10 11 11 11 10 13 14 11 17 15 18 16 13 11 9 7 3 2 1 3 3 3 4 5 5 6 7 7 7 8 9 10 10 10 11 11 11 13 13
11 10 9 9 9 10 10 10 9 11 11 11 10 11 8 13 12 8 7 2 2 2 2 3 2 3 4 5 5 6 8 7 8 9 10 10 10 9 12 11 13 17 18
10 15 12 10 11 10 10 10 10 10 11 9 8 7 5 5 5 4 2 2 2 3 3 3 3 4 4 5 6 6 7 8 8 9 10 10 10 10 12 13 13 14 14
9 11 16 11 11 10 9 10 9 10 10 8 8 7 12 5 5 4 3 3 3 3 2 4 4 4 5 5 6 7 8 9 9 10 10 10 10 11 12 12 13 14 15
10 11 11 12 12 11 9 9 9 10 10 9 7 6 15 4 4 3 2 2 2 2 2 4 4 5 5 6 6 7 8 10 10 10 10 11 11 12 12 13 13 14 15
11 12 12 11 12 14 10 8 9 9 9 8 7 6 4 3 3 2 2 2 2 2 2 3 5 6 6 7 7 7 9 10 10 10 11 12 12 13 12 13 15 15 15
13 14 14 13 11 11 10 10 9 11 9 8 6 5 4 3 2 3 2 2 2 2 2 4 6 8 8 8 8 9 10 11 10 11 14 13 13 15 13 14 15 19 18
12 14 13 13 12 11 11 10 9 8 8 7 5 4 3 2 2 2 2 2 2 3 5 5 6 8 10 12 14 16 17 20 17 17 11 14 17 20 18 16 19 18 21
13 14 13 12 11 10 10 9 8 8 7 6 5 3 3 2 2 2 2 2 2 4 6 6 8 11 13 13 15 17 18 20 18 21 15 13 15 15 15 19 25 18 20
Wind_Direction
214 211 213 214 213 212 213 213 211 208 205 206 205 205 206 206 206 210 215 221 225 230 234 233 242 249 254 259 266 271 272 276 282 284 289 294 296 292 293 294 291 286 294
216 215 215 214 212 213 214 213 208 208 206 205 204 206 206 205 206 208 213 216 224 230 231 236 243 245 255 260 263 269 273 280 285 290 291 291 289 293 292 292 290 296 290
218 217 218 216 213 216 214 211 209 207 206 204 202 203 203 204 204 208 211 216 220 226 234 236 243 250 259 265 272 276 281 284 285 289 294 294 295 298 296 290 295 292 284
226 222 220 218 218 216 213 211 209 206 203 202 201 202 202 201 203 202 205 212 221 226 226 233 247 256 265 274 274 280 292 290 290 291 295 299 302 300 296 301 296 297 299
231 227 226 225 223 219 217 212 209 205 204 200 197 199 199 199 196 195 194 204 213 218 214 220 235 255 286 284 282 283 287 289 290 292 293 296 301 307 301 306 299 306 303
240 237 231 229 225 224 219 212 205 203 200 196 195 193 194 192 188 188 187 192 202 208 219 227 231 221 236 261 271 280 280 284 283 288 291 289 294 301 308 310 308 305 302
242 242 239 231 229 224 218 213 207 201 193 194 190 188 190 179 180 186 191 180 189 201 217 222 240 239 248 265 277 282 287 284 283 291 292 296 306 316 312 306 310 299 297
248 242 240 235 231 225 219 218 210 201 193 183 182 180 173 168 175 179 176 180 190 201 208 220 237 257 269 283 286 287 291 288 291 304 298 301 298 302 306 305 303 300 296
252 247 241 234 234 227 220 215 210 200 191 182 169 157 153 149 168 170 167 176 189 199 202 221 240 258 276 283 288 289 288 292 299 304 303 303 308 305 301 305 301 301 297
256 247 241 232 230 224 219 207 201 191 183 160 149 146 143 145 166 168 169 166 176 185 202 219 219 237 266 281 284 291 302 305 304 300 312 303 298 296 298 295 292 291 294
248 241 230 222 229 224 209 192 180 167 152 144 132 125 129 142 160 169 174 172 179 186 202 218 235 262 275 284 297 313 301 304 312 317 301 295 293 289 289 289 286 285 288
246 242 231 218 218 211 188 171 165 157 146 138 129 122 124 138 155 168 172 177 172 175 206 232 251 266 286 299 308 301 299 313 325 295 291 290 293 295 295 296 292 283 270
235 245 233 210 197 189 176 170 159 159 151 148 143 139 142 147 152 164 163 171 177 187 213 240 296 293 300 313 294 295 309 305 291 289 289 289 288 291 297 291 284 281 279
250 229 192 174 185 168 175 176 166 167 159 152 146 144 143 146 150 149 161 164 187 213 216 120 295 303 293 282 278 290 297 289 289 282 278 287 294 294 289 288 289 295 295
221 203 183 172 161 160 173 174 170 166 168 155 148 143 146 153 162 158 157 165 185 145 125 162 259 272 272 265 268 272 275 281 285 283 287 296 295 292 286 290 289 295 292
199 197 190 169 158 149 143 133 122 121 131 125 125 124 117 136 152 154 155 157 128 128 129 147 245 253 262 278 287 290 289 284 283 293 295 290 287 290 290 293 292 291 293
205 189 177 166 162 151 153 149 133 114 112 112 116 120 127 135 140 144 149 124 118 115 130 207 239 249 270 279 279 281 286 284 294 284 283 288 288 287 292 292 295 293 292
201 186 177 165 159 150 146 143 134 127 124 119 113 120 124 129 137 139 135 132 127 113 159 236 248 266 272 276 280 283 283 284 282 287 286 287 284 281 288 291 293 294 294
179 165 169 156 152 139 134 128 126 121 117 115 119 99 108 135 129 132 116 116 139 197 221 241 249 263 268 276 277 276 275 278 282 283 278 278 281 284 287 287 289 292 290
161 157 152 142 133 128 123 128 129 122 120 122 125 134 127 118 141 152 144 134 177 232 242 248 254 255 263 270 273 275 277 280 280 281 281 282 283 283 284 288 288 291 291
148 144 142 133 126 128 133 133 130 126 124 127 123 143 150 140 136 150 154 181 218 236 251 259 266 273 271 269 268 269 273 278 280 282 281 284 286 287 285 285 287 287 286
145 144 144 134 125 125 124 127 124 118 119 120 124 151 126 112 127 136 173 210 213 226 254 265 275 270 269 270 271 274 275 277 279 279 281 284 286 286 286 285 286 285 286
141 136 127 123 114 119 117 119 114 114 115 115 121 115 126 134 124 160 216 217 217 232 243 258 264 267 263 262 264 264 272 274 276 279 281 283 283 282 284 285 284 284 283
134 133 124 119 118 116 118 114 108 109 115 116 119 127 139 125 167 206 226 243 245 261 256 247 246 255 272 273 272 268 266 267 269 271 274 277 279 282 279 278 278 280 281
124 122 122 121 120 120 119 113 112 113 110 114 121 124 129 157 192 227 238 239 247 272 266 258 261 264 266 268 267 270 269 274 270 269 271 266 265 270 271 272 272 277 284
118 117 114 112 118 119 117 116 115 112 114 117 120 127 142 164 219 250 263 267 261 258 275 276 272 271 274 276 275 275 278 282 284 279 270 269 274 278 281 285 285 282 284